Showing default

COSMOS 2538, 44424

Orbit data source: Space-Track

COSMOS 2538, 44424 is a payload satellite owned by TsNIIKhM (CIS) in SSO that was launched on Wed, 10 Jul 2019 UTC via a SOYUZ-2-1V launch vehicle from the Plesetsk Missile And Space Complex (PKMTR). Payload-class satellites include a variety of spacecraft equipped with specific instruments for various scientific and technological missions. These include communications satellites like Starlink; space stations such as the ISS; scientific satellites like the Hubble; Earth observation satellites from companies like Planet Labs, Umbra, and HawkEye 360; GPS; miniature CubeSats for education and research; and military/defense satellites.

Loading next visibility...
Identifier
44424, 2019-039D
Orbit
SSO
Country
Flag of CISCIS
Related business
Manufacturer
TsNIIKhM
Mission
Operational Defense Technology
Bus & Motor
NIVELIR, Unknown motor
Mass
~100 kg wet, ~100 kg dry
Launch date (UTC)
2019-07-10 (6 years ago)
Launch vehicle
SOYUZ-2-1V
Launch site
Plesetsk Missile And Space Complex (PKMTR)
Object type
Payload
Rocket body
Debris
Shape & HBR
Hex Cyl + 1 Ant, 0.4 m
Radar Cross Section
0.503 m², Medium (>0.1 m² and < 1m²)

Expand to show TLE details & history
Last TLE update: 6 hours ago

TLE from 6 hours ago
0 COSMOS 2538
1 44424U 19039D   25288.91614784  .00008697  00000-0  43236-3 0  9996
2 44424  97.6139   1.9241 0046039 171.7265 188.4738 15.16943089342827
Epoch: 2025-10-15T21:59Z
TLE epoch observation values (Epoch: 2025-10-15T21:59:15.173Z)
Latitude
0.00001°
Longitude
7.42752°
Altitude
549.565 km
Speed
7.57 km/s
True Right ascension
00h 07m 41s
True Declination
0° 00' 00"
Sunlit
Object was in full shadow at epoch
Visualization orbit readout
Latitude
Unknown
Longitude
Unknown
Altitude
Unknown
Speed
Unknown
Apparent Right ascension
Unknown
Apparent Declination
Unknown
Sunlit
N/A
Visualization observer readout
Local Sidereal Time
22:24:47
Azimuth
Unknown
Elevation
Unknown
Doppler factor
Unknown
Orbital elements
Apogee altitude
543.786 km
Perigee altitude
480.343 km
Semi-major axis
6,890.202 km
Eccentricity
0.0046
Inclination
97.6139°
RAAN
1.9241°
Arg. of periapsis
171.7265°
True anomaly
188.3965°
Mean anomaly
188.4738°
Eccentric anomaly
188.43511°
Mean motion
3.79486 °/min
Orbital period
94.87 mins
BSTAR
0.00043236
Loading maneuver chart data...
Computing Atmospheric mass density...

Documentation

Showing up to 5 results
|